Time,TemperatureF,DewpointF,PressureIn,WindDirection,WindDirectionDegrees,WindSpeedMPH,WindSpeedGustMPH,Humidity,HourlyPrecipIn,Conditions,Clouds,dailyrainin,SoftwareType,DateUTC
2013-03-22 00:00:00,24.4,13.6,29.97,SW,215,4.0,4.0,63,0.00,,---,0.04,VWS V14.01,2013-03-22 04:00:00,
2013-03-22 00:01:00,24.4,13.6,29.97,SW,215,4.0,4.0,63,0.00,,---,0.04,VWS V14.01,2013-03-22 04:01:00,
2013-03-22 00:02:00,24.4,13.6,29.97,SW,215,4.0,4.0,63,0.00,,---,0.04,VWS V14.01,2013-03-22 04:02:00,
2013-03-22 00:06:00,24.4,13.6,29.97,NW,305,5.6,5.6,63,0.00,,---,0.00,VWS V14.01,2013-03-22 04:06:00,
2013-03-22 00:11:00,24.4,13.6,29.97,NW,305,0.0,5.6,63,0.00,,---,0.00,VWS V14.01,2013-03-22 04:11:00,
2013-03-22 00:17:00,24.4,14.0,29.97,WNW,282,3.0,4.6,64,0.00,,---,0.00,VWS V14.01,2013-03-22 04:17:00,
2013-03-22 00:22:00,24.4,14.0,29.97,WNW,282,3.0,3.0,64,0.00,,---,0.00,VWS V14.01,2013-03-22 04:22:00,
2013-03-22 00:27:00,24.4,13.6,29.97,NW,305,1.7,1.7,63,0.00,,---,0.00,VWS V14.01,2013-03-22 04:27:00,
2013-03-22 00:32:00,24.4,14.0,29.97,West,260,5.0,5.0,64,0.00,,---,0.00,VWS V14.01,2013-03-22 04:32:00,
2013-03-22 00:37:00,24.4,14.0,29.97,WNW,282,3.0,3.0,64,0.00,,---,0.00,VWS V14.01,2013-03-22 04:37:00,
2013-03-22 00:42:00,24.2,13.8,29.97,West,260,3.3,3.3,64,0.00,,---,0.00,VWS V14.01,2013-03-22 04:42:00,
2013-03-22 00:48:00,24.4,14.0,29.97,NW,305,4.3,4.3,64,0.00,,---,0.00,VWS V14.01,2013-03-22 04:48:00,
2013-03-22 00:53:00,24.2,13.8,29.97,NNW,328,0.0,3.6,64,0.00,,---,0.00,VWS V14.01,2013-03-22 04:53:00,
2013-03-22 00:58:00,24.2,13.8,29.97,NW,305,5.3,5.3,64,0.00,,---,0.00,VWS V14.01,2013-03-22 04:58:00,
2013-03-22 01:03:00,24.2,13.8,29.97,NW,305,5.3,5.3,64,0.00,,---,0.04,VWS V14.01,2013-03-22 05:03:00,
2013-03-22 01:08:00,24.2,13.8,29.97,NW,305,0.0,4.0,64,0.00,,---,0.00,VWS V14.01,2013-03-22 05:08:00,
2013-03-22 01:13:00,24.2,13.8,29.97,WNW,282,1.7,4.0,64,0.00,,---,0.00,VWS V14.01,2013-03-22 05:13:00,
2013-03-22 01:18:00,24.2,13.8,29.97,WNW,282,4.6,4.6,64,0.00,,---,0.00,VWS V14.01,2013-03-22 05:18:00,
2013-03-22 01:23:00,24.2,14.1,29.97,NW,305,3.6,4.0,65,0.00,,---,0.00,VWS V14.01,2013-03-22 05:23:00,
2013-03-22 01:28:00,24.2,14.1,29.97,NW,305,3.3,3.3,65,0.00,,---,0.00,VWS V14.01,2013-03-22 05:28:00,
2013-03-22 01:33:00,24.2,14.1,29.97,WNW,282,1.3,4.6,65,0.00,,---,0.00,VWS V14.01,2013-03-22 05:33:00,
2013-03-22 01:38:00,24.2,14.1,29.97,NNW,328,4.0,4.3,65,0.00,,---,0.00,VWS V14.01,2013-03-22 05:38:00,
2013-03-22 01:43:00,24.2,14.1,29.97,WNW,282,0.0,0.0,65,0.00,,---,0.00,VWS V14.01,2013-03-22 05:43:00,
2013-03-22 01:49:00,24.2,14.1,29.97,West,260,1.3,2.3,65,0.00,,---,0.00,VWS V14.01,2013-03-22 05:49:00,
2013-03-22 01:54:00,24.2,14.1,29.97,NW,305,0.0,0.0,65,0.00,,---,0.00,VWS V14.01,2013-03-22 05:54:00,
2013-03-22 01:59:00,24.2,14.1,29.97,West,260,5.6,5.6,65,0.00,,---,0.00,VWS V14.01,2013-03-22 05:59:00,
2013-03-22 02:04:00,24.2,14.1,29.97,West,260,4.0,4.0,65,0.00,,---,0.00,VWS V14.01,2013-03-22 06:04:00,
2013-03-22 02:09:00,24.2,14.1,29.97,West,260,4.6,4.6,65,0.00,,---,0.00,VWS V14.01,2013-03-22 06:09:00,
2013-03-22 02:15:00,24.2,14.5,29.97,West,260,4.6,4.6,66,0.00,,---,0.00,VWS V14.01,2013-03-22 06:15:00,
2013-03-22 02:20:00,24.2,14.5,29.97,West,260,2.0,2.0,66,0.00,,---,0.00,VWS V14.01,2013-03-22 06:20:00,
2013-03-22 02:25:00,24.2,14.5,29.97,West,260,4.3,6.3,66,0.00,,---,0.00,VWS V14.01,2013-03-22 06:25:00,
2013-03-22 02:30:00,24.2,14.5,29.97,WSW,238,1.3,1.3,66,0.00,,---,0.00,VWS V14.01,2013-03-22 06:30:00,
2013-03-22 02:35:00,24.2,14.5,29.97,WSW,238,1.3,1.3,66,0.00,,---,0.00,VWS V14.01,2013-03-22 06:35:00,
2013-03-22 02:40:00,24.2,14.5,29.97,WSW,238,3.0,4.0,66,0.00,,---,0.00,VWS V14.01,2013-03-22 06:40:00,
2013-03-22 02:45:00,24.2,14.5,29.97,NW,305,1.7,3.0,66,0.00,,---,0.00,VWS V14.01,2013-03-22 06:45:00,
2013-03-22 02:50:00,24.2,14.5,29.97,WSW,238,0.0,0.0,66,0.00,,---,0.00,VWS V14.01,2013-03-22 06:50:00,
2013-03-22 02:55:00,24.2,14.5,29.97,West,260,0.0,0.0,66,0.00,,---,0.00,VWS V14.01,2013-03-22 06:55:00,
2013-03-22 03:00:00,24.2,14.5,29.97,West,260,0.0,0.0,66,0.00,,---,0.00,VWS V14.01,2013-03-22 07:00:00,
2013-03-22 03:05:00,24.0,14.3,29.97,West,260,0.0,0.0,66,0.00,,---,0.00,VWS V14.01,2013-03-22 07:05:00,
2013-03-22 03:11:00,24.0,14.3,29.97,NW,305,0.0,2.3,66,0.00,,---,0.00,VWS V14.01,2013-03-22 07:11:00,
2013-03-22 03:16:00,24.0,14.3,29.97,West,260,0.0,0.0,66,0.00,,---,0.00,VWS V14.01,2013-03-22 07:16:00,
2013-03-22 03:22:00,24.0,14.3,29.97,WNW,282,0.0,0.0,66,0.00,,---,0.00,VWS V14.01,2013-03-22 07:22:00,
2013-03-22 03:27:00,24.0,14.3,29.97,NW,305,0.0,0.0,66,0.00,,---,0.00,VWS V14.01,2013-03-22 07:27:00,
2013-03-22 03:32:00,24.0,14.3,29.97,NW,305,0.0,0.0,66,0.00,,---,0.00,VWS V14.01,2013-03-22 07:32:00,
2013-03-22 03:37:00,24.2,14.5,29.97,NW,305,0.0,0.0,66,0.00,,---,0.00,VWS V14.01,2013-03-22 07:37:00,
2013-03-22 03:42:00,24.2,14.5,29.97,West,260,2.0,2.0,66,0.00,,---,0.00,VWS V14.01,2013-03-22 07:42:00,
2013-03-22 03:47:00,24.0,14.3,29.97,West,260,4.6,4.6,66,0.00,,---,0.00,VWS V14.01,2013-03-22 07:47:00,
2013-03-22 03:52:00,24.0,14.3,29.97,NW,305,2.0,4.6,66,0.00,,---,0.00,VWS V14.01,2013-03-22 07:52:00,
2013-03-22 03:57:00,24.0,14.3,29.97,NW,305,2.0,2.0,66,0.00,,---,0.00,VWS V14.01,2013-03-22 07:57:00,
2013-03-22 04:02:00,24.2,14.5,29.97,NW,305,0.0,0.0,66,0.00,,---,0.00,VWS V14.01,2013-03-22 08:02:00,
2013-03-22 04:07:00,24.2,14.5,29.97,West,260,1.3,1.7,66,0.00,,---,0.00,VWS V14.01,2013-03-22 08:07:00,
2013-03-22 04:12:00,24.2,14.5,29.97,SW,215,0.0,0.0,66,0.00,,---,0.00,VWS V14.01,2013-03-22 08:12:00,
2013-03-22 04:17:00,24.2,14.5,29.97,SW,215,0.0,0.0,66,0.00,,---,0.00,VWS V14.01,2013-03-22 08:17:00,
2013-03-22 04:22:00,24.2,14.5,29.97,WSW,238,3.6,3.6,66,0.00,,---,0.00,VWS V14.01,2013-03-22 08:22:00,
2013-03-22 04:27:00,24.2,14.5,29.97,West,260,3.6,4.3,66,0.00,,---,0.00,VWS V14.01,2013-03-22 08:27:00,
2013-03-22 04:33:00,24.2,14.5,29.97,SW,215,3.6,3.6,66,0.00,,---,0.00,VWS V14.01,2013-03-22 08:33:00,
2013-03-22 04:38:00,24.2,14.5,29.97,WSW,238,4.0,4.0,66,0.00,,---,0.00,VWS V14.01,2013-03-22 08:38:00,
2013-03-22 04:43:00,24.0,14.3,29.97,WSW,238,4.0,4.0,66,0.00,,---,0.00,VWS V14.01,2013-03-22 08:43:00,
2013-03-22 04:48:00,24.0,14.0,29.97,SW,215,3.0,3.0,65,0.00,,---,0.00,VWS V14.01,2013-03-22 08:48:00,
2013-03-22 04:53:00,24.0,14.0,29.97,WSW,238,0.0,0.0,65,0.00,,---,0.00,VWS V14.01,2013-03-22 08:53:00,
2013-03-22 04:58:00,24.0,14.3,29.97,WSW,238,1.7,1.7,66,0.00,,---,0.00,VWS V14.01,2013-03-22 08:58:00,
2013-03-22 05:03:00,24.0,14.3,29.97,West,260,2.3,5.0,66,0.00,,---,0.00,VWS V14.01,2013-03-22 09:03:00,
2013-03-22 05:08:00,23.8,14.1,29.97,West,260,2.3,2.3,66,0.00,,---,0.00,VWS V14.01,2013-03-22 09:08:00,
2013-03-22 05:14:00,23.8,14.1,29.97,West,260,4.6,4.6,66,0.00,,---,0.00,VWS V14.01,2013-03-22 09:14:00,
2013-03-22 05:19:00,23.8,14.1,29.97,West,260,0.0,0.0,66,0.00,,---,0.00,VWS V14.01,2013-03-22 09:19:00,
2013-03-22 05:24:00,23.8,14.1,29.97,WSW,238,3.3,3.3,66,0.00,,---,0.00,VWS V14.01,2013-03-22 09:24:00,
2013-03-22 05:29:00,23.8,14.1,29.97,West,260,1.3,3.6,66,0.00,,---,0.00,VWS V14.01,2013-03-22 09:29:00,
2013-03-22 05:34:00,23.8,14.5,29.97,West,260,1.7,1.7,67,0.00,,---,0.00,VWS V14.01,2013-03-22 09:34:00,
2013-03-22 05:39:00,23.8,14.5,29.97,WSW,238,0.0,2.3,67,0.00,,---,0.00,VWS V14.01,2013-03-22 09:39:00,
2013-03-22 05:44:00,23.8,14.1,29.97,SW,215,2.0,3.0,66,0.00,,---,0.00,VWS V14.01,2013-03-22 09:44:00,
2013-03-22 05:49:00,23.8,14.1,29.97,West,260,0.0,0.0,66,0.00,,---,0.00,VWS V14.01,2013-03-22 09:49:00,
2013-03-22 05:54:00,23.8,14.5,29.97,West,260,0.0,0.0,67,0.00,,---,0.00,VWS V14.01,2013-03-22 09:54:00,
2013-03-22 05:59:00,23.8,14.5,29.97,WSW,238,2.3,2.3,67,0.00,,---,0.00,VWS V14.01,2013-03-22 09:59:00,
2013-03-22 06:05:00,24.0,14.3,29.97,SW,215,2.0,2.0,66,0.00,,---,0.00,VWS V14.01,2013-03-22 10:05:00,
2013-03-22 06:10:00,24.0,14.3,29.97,West,260,1.7,1.7,66,0.00,,---,0.00,VWS V14.01,2013-03-22 10:10:00,
2013-03-22 06:15:00,24.0,14.3,29.97,NW,305,3.6,3.6,66,0.00,,---,0.00,VWS V14.01,2013-03-22 10:15:00,
2013-03-22 06:20:00,24.2,14.8,29.97,WNW,282,3.0,3.6,67,0.00,,---,0.00,VWS V14.01,2013-03-22 10:20:00,
2013-03-22 06:25:00,24.2,14.8,29.97,West,260,0.0,0.0,67,0.00,,---,0.00,VWS V14.01,2013-03-22 10:25:00,
2013-03-22 06:30:00,24.2,14.5,29.97,NW,305,2.0,2.0,66,0.00,,---,0.00,VWS V14.01,2013-03-22 10:30:00,
2013-03-22 06:35:00,24.2,14.5,29.97,West,260,1.3,4.0,66,0.00,,---,0.00,VWS V14.01,2013-03-22 10:35:00,
2013-03-22 06:41:00,24.4,15.0,29.97,West,260,4.6,4.6,67,0.00,,---,0.00,VWS V14.01,2013-03-22 10:41:00,
2013-03-22 06:46:00,24.4,14.7,29.97,NW,305,0.0,0.0,66,0.00,,---,0.00,VWS V14.01,2013-03-22 10:46:00,
2013-03-22 06:52:00,24.2,14.5,29.97,West,260,4.3,4.3,66,0.00,,---,0.00,VWS V14.01,2013-03-22 10:52:00,
2013-03-22 06:57:00,24.2,14.8,29.97,SW,215,2.3,2.3,67,0.00,,---,0.00,VWS V14.01,2013-03-22 10:57:00,
2013-03-22 07:02:00,24.4,14.7,29.97,WSW,238,1.3,3.0,66,0.00,,---,0.00,VWS V14.01,2013-03-22 11:02:00,
2013-03-22 07:07:00,24.2,14.5,29.97,WNW,282,2.0,2.0,66,0.00,,---,0.00,VWS V14.01,2013-03-22 11:07:00,
2013-03-22 07:12:00,24.2,14.5,29.97,NW,305,0.0,0.0,66,0.00,,---,0.00,VWS V14.01,2013-03-22 11:12:00,
2013-03-22 07:17:00,24.2,14.5,29.97,West,260,2.0,3.0,66,0.00,,---,0.00,VWS V14.01,2013-03-22 11:17:00,
2013-03-22 07:22:00,24.2,14.5,29.97,West,260,2.3,2.3,66,0.00,,---,0.00,VWS V14.01,2013-03-22 11:22:00,
2013-03-22 07:27:00,24.0,14.3,29.97,West,260,2.0,2.0,66,0.00,,---,0.00,VWS V14.01,2013-03-22 11:27:00,
2013-03-22 07:33:00,24.0,14.3,29.97,West,260,3.3,3.3,66,0.00,,---,0.00,VWS V14.01,2013-03-22 11:33:00,
2013-03-22 07:38:00,24.0,14.3,29.97,WSW,238,3.3,3.3,66,0.00,,---,0.00,VWS V14.01,2013-03-22 11:38:00,
2013-03-22 07:43:00,24.2,14.5,29.97,WSW,238,0.0,0.0,66,0.00,,---,0.00,VWS V14.01,2013-03-22 11:43:00,
2013-03-22 07:48:00,24.2,14.5,29.97,WSW,238,4.0,4.0,66,0.00,,---,0.00,VWS V14.01,2013-03-22 11:48:00,
2013-03-22 07:53:00,24.2,14.8,29.97,WSW,238,0.0,3.3,67,0.00,,---,0.00,VWS V14.01,2013-03-22 11:53:00,
2013-03-22 07:58:00,24.2,14.8,29.97,West,260,2.0,2.0,67,0.00,,---,0.00,VWS V14.01,2013-03-22 11:58:00,
2013-03-22 08:03:00,24.2,14.8,29.97,SW,215,0.0,0.0,67,0.00,,---,0.00,VWS V14.01,2013-03-22 12:03:00,
2013-03-22 08:08:00,24.4,14.7,29.97,West,260,6.3,6.3,66,0.00,,---,0.00,VWS V14.01,2013-03-22 12:08:00,
2013-03-22 08:14:00,24.6,14.8,29.97,West,260,4.0,4.0,66,0.00,,---,0.00,VWS V14.01,2013-03-22 12:14:00,
2013-03-22 08:19:00,24.6,14.8,29.97,West,260,4.0,4.0,66,0.00,,---,0.00,VWS V14.01,2013-03-22 12:19:00,
2013-03-22 08:24:00,24.7,15.0,29.97,West,260,4.0,4.0,66,0.00,,---,0.00,VWS V14.01,2013-03-22 12:24:00,
2013-03-22 08:29:00,24.7,15.0,29.97,West,260,2.3,3.3,66,0.00,,---,0.00,VWS V14.01,2013-03-22 12:29:00,
2013-03-22 08:34:00,24.9,15.2,29.97,West,260,0.0,0.0,66,0.00,,---,0.00,VWS V14.01,2013-03-22 12:34:00,
2013-03-22 08:39:00,25.1,15.4,29.97,West,260,0.0,3.0,66,0.00,,---,0.00,VWS V14.01,2013-03-22 12:39:00,
2013-03-22 08:44:00,25.3,15.5,29.97,West,260,5.6,5.6,66,0.00,,---,0.00,VWS V14.01,2013-03-22 12:44:00,
2013-03-22 08:49:00,25.5,15.4,29.97,West,260,5.6,5.6,65,0.00,,---,0.00,VWS V14.01,2013-03-22 12:49:00,
2013-03-22 08:54:00,25.5,15.4,29.97,SW,215,0.0,3.0,65,0.00,,---,0.00,VWS V14.01,2013-03-22 12:54:00,
2013-03-22 08:59:00,25.8,15.7,29.97,West,260,8.9,8.9,65,0.00,,---,0.00,VWS V14.01,2013-03-22 12:59:00,
2013-03-22 09:05:00,26.0,15.9,29.97,West,260,8.9,8.9,65,0.00,,---,0.00,VWS V14.01,2013-03-22 13:05:00,
2013-03-22 09:10:00,26.2,16.0,29.97,West,260,8.9,8.9,65,0.00,,---,0.00,VWS V14.01,2013-03-22 13:10:00,
2013-03-22 09:15:00,26.4,15.9,29.97,West,260,6.3,6.3,64,0.00,,---,0.00,VWS V14.01,2013-03-22 13:15:00,
2013-03-22 09:20:00,26.5,16.0,29.97,West,260,6.3,6.3,64,0.00,,---,0.00,VWS V14.01,2013-03-22 13:20:00,
2013-03-22 09:25:00,26.7,16.2,29.97,West,260,2.3,6.3,64,0.00,,---,0.00,VWS V14.01,2013-03-22 13:25:00,
2013-03-22 09:30:00,27.1,16.2,29.97,NW,305,0.0,0.0,63,0.00,,---,0.00,VWS V14.01,2013-03-22 13:30:00,
2013-03-22 09:35:00,27.4,16.9,29.97,WNW,282,3.0,4.6,64,0.00,,---,0.00,VWS V14.01,2013-03-22 13:35:00,
2013-03-22 09:40:00,27.6,16.7,29.97,NNE,12,3.3,4.6,63,0.00,,---,0.00,VWS V14.01,2013-03-22 13:40:00,
2013-03-22 09:45:00,28.0,17.0,29.97,WNW,282,4.0,4.3,63,0.00,,---,0.00,VWS V14.01,2013-03-22 13:45:00,
2013-03-22 09:51:00,28.0,16.7,29.97,West,260,4.3,4.3,62,0.00,,---,0.00,VWS V14.01,2013-03-22 13:51:00,
2013-03-22 09:56:00,28.3,17.0,29.97,SW,215,1.7,5.3,62,0.00,,---,0.00,VWS V14.01,2013-03-22 13:56:00,
2013-03-22 10:01:00,28.7,17.3,29.97,NW,305,3.0,4.6,62,0.00,,---,0.04,VWS V14.01,2013-03-22 14:01:00,
2013-03-22 10:06:00,29.2,17.9,29.97,NW,305,7.9,7.9,62,0.00,,---,0.00,VWS V14.01,2013-03-22 14:06:00,
2013-03-22 10:11:00,29.4,18.0,29.97,NW,305,4.0,4.0,62,0.00,,---,0.00,VWS V14.01,2013-03-22 14:11:00,
2013-03-22 10:16:00,29.8,17.6,29.97,North,350,4.3,4.3,60,0.00,,---,0.00,VWS V14.01,2013-03-22 14:16:00,
2013-03-22 10:21:00,29.8,17.6,29.97,NW,305,2.0,4.3,60,0.00,,---,0.00,VWS V14.01,2013-03-22 14:21:00,
2013-03-22 10:26:00,30.3,18.1,29.97,North,350,5.0,5.0,60,0.00,,---,0.00,VWS V14.01,2013-03-22 14:26:00,
2013-03-22 10:31:00,30.5,18.3,29.97,West,260,6.3,6.3,60,0.00,,---,0.00,VWS V14.01,2013-03-22 14:31:00,
2013-03-22 10:36:00,30.9,18.2,29.97,West,260,0.0,4.0,59,0.00,,---,0.00,VWS V14.01,2013-03-22 14:36:00,
2013-03-22 10:42:00,31.0,18.4,29.97,North,350,4.3,8.9,59,0.00,,---,0.00,VWS V14.01,2013-03-22 14:42:00,
2013-03-22 10:47:00,31.2,18.2,29.97,North,350,3.6,4.6,58,0.00,,---,0.00,VWS V14.01,2013-03-22 14:47:00,
2013-03-22 10:52:00,31.6,18.5,29.97,West,260,5.6,6.3,58,0.00,,---,0.00,VWS V14.01,2013-03-22 14:52:00,
2013-03-22 10:57:00,31.8,18.7,29.97,WNW,282,0.0,5.6,58,0.00,,---,0.00,VWS V14.01,2013-03-22 14:57:00,
2013-03-22 11:02:00,32.1,19.0,29.97,West,260,11.3,11.3,58,0.00,,---,0.04,VWS V14.01,2013-03-22 15:02:00,
2013-03-22 11:07:00,32.7,19.1,29.97,West,260,6.0,10.9,57,0.00,,---,0.00,VWS V14.01,2013-03-22 15:07:00,
2013-03-22 11:12:00,32.8,18.9,29.97,NE,35,3.0,3.0,56,0.00,,---,0.00,VWS V14.01,2013-03-22 15:12:00,
2013-03-22 11:17:00,33.0,19.0,29.97,NE,35,0.0,9.3,56,0.00,,---,0.00,VWS V14.01,2013-03-22 15:17:00,
2013-03-22 11:23:00,34.3,20.2,29.97,West,260,8.3,8.3,56,0.00,,---,0.00,VWS V14.01,2013-03-22 15:23:00,
2013-03-22 11:28:00,33.4,19.0,29.97,West,260,7.9,8.3,55,0.00,,---,0.00,VWS V14.01,2013-03-22 15:28:00,
2013-03-22 11:33:00,33.7,18.9,29.97,West,260,1.3,1.3,54,0.00,,---,0.00,VWS V14.01,2013-03-22 15:33:00,
2013-03-22 11:38:00,33.6,18.7,29.97,West,260,5.0,9.3,54,0.00,,---,0.00,VWS V14.01,2013-03-22 15:38:00,
2013-03-22 11:43:00,35.0,20.0,29.97,WNW,282,11.6,11.9,54,0.00,,---,0.00,VWS V14.01,2013-03-22 15:43:00,
2013-03-22 11:48:00,34.3,19.4,29.97,WNW,282,8.9,8.9,54,0.00,,---,0.00,VWS V14.01,2013-03-22 15:48:00,
2013-03-22 11:53:00,33.4,18.1,29.97,NW,305,3.3,8.9,53,0.00,,---,0.00,VWS V14.01,2013-03-22 15:53:00,
2013-03-22 11:58:00,33.4,18.5,29.97,West,260,6.3,8.3,54,0.00,,---,0.00,VWS V14.01,2013-03-22 15:58:00,
2013-03-22 12:03:00,33.4,18.1,29.97,SW,215,7.9,9.3,53,0.00,,---,0.00,VWS V14.01,2013-03-22 16:03:00,
2013-03-22 12:08:00,34.5,19.5,29.97,NW,305,7.3,9.6,54,0.00,,---,0.00,VWS V14.01,2013-03-22 16:08:00,
2013-03-22 12:14:00,35.2,19.8,29.97,West,260,8.9,8.9,53,0.00,,---,0.00,VWS V14.01,2013-03-22 16:14:00,
2013-03-22 12:19:00,34.8,19.5,29.97,NW,305,3.6,6.3,53,0.04,,---,0.04,VWS V14.01,2013-03-22 16:19:00,
2013-03-22 12:24:00,35.0,19.6,29.97,West,260,8.9,8.9,53,0.04,,---,0.04,VWS V14.01,2013-03-22 16:24:00,
2013-03-22 12:29:00,35.7,19.8,29.97,NW,305,6.3,6.3,52,0.04,,---,0.04,VWS V14.01,2013-03-22 16:29:00,
2013-03-22 12:34:00,35.7,19.8,29.97,NW,305,10.9,10.9,52,0.04,,---,0.04,VWS V14.01,2013-03-22 16:34:00,
2013-03-22 12:39:00,35.4,20.0,29.97,WNW,282,4.3,4.3,53,0.04,,---,0.04,VWS V14.01,2013-03-22 16:39:00,
2013-03-22 12:44:00,35.4,19.5,29.97,North,350,3.3,6.0,52,0.04,,---,0.04,VWS V14.01,2013-03-22 16:44:00,
2013-03-22 12:49:00,36.6,21.1,29.97,West,260,10.9,10.9,53,0.04,,---,0.04,VWS V14.01,2013-03-22 16:49:00,
2013-03-22 12:54:00,37.2,21.2,29.97,SW,215,11.9,11.9,52,0.04,,---,0.04,VWS V14.01,2013-03-22 16:54:00,
2013-03-22 13:00:00,36.4,20.5,29.97,West,260,7.3,7.3,52,0.04,,---,0.04,VWS V14.01,2013-03-22 17:00:00,
2013-03-22 13:05:00,37.0,20.5,29.97,West,260,7.3,8.9,51,0.04,,---,0.04,VWS V14.01,2013-03-22 17:05:00,
2013-03-22 13:10:00,37.3,20.9,29.97,SW,215,4.3,5.0,51,0.04,,---,0.04,VWS V14.01,2013-03-22 17:10:00,
2013-03-22 13:15:00,36.4,20.0,29.97,NW,305,6.3,8.6,51,0.04,,---,0.04,VWS V14.01,2013-03-22 17:15:00,
2013-03-22 13:20:00,36.8,20.4,29.97,West,260,6.3,9.3,51,0.00,,---,0.04,VWS V14.01,2013-03-22 17:20:00,
2013-03-22 13:25:00,37.7,21.2,29.97,SW,215,10.9,10.9,51,0.00,,---,0.04,VWS V14.01,2013-03-22 17:25:00,
2013-03-22 13:31:00,37.7,21.2,29.97,West,260,5.3,5.3,51,0.00,,---,0.04,VWS V14.01,2013-03-22 17:31:00,
2013-03-22 13:36:00,38.4,21.9,29.97,NW,305,9.6,9.6,51,0.00,,---,0.04,VWS V14.01,2013-03-22 17:36:00,
2013-03-22 13:42:00,38.1,21.5,29.97,WNW,282,0.0,3.6,51,0.00,,---,0.04,VWS V14.01,2013-03-22 17:42:00,
2013-03-22 13:47:00,37.3,20.4,29.97,NW,305,4.3,4.3,50,0.00,,---,0.04,VWS V14.01,2013-03-22 17:47:00,
2013-03-22 13:52:00,37.9,21.4,29.97,SW,215,6.0,9.6,51,0.00,,---,0.04,VWS V14.01,2013-03-22 17:52:00,
2013-03-22 13:57:00,37.0,20.5,29.97,WNW,282,15.2,15.2,51,0.00,,---,0.04,VWS V14.01,2013-03-22 17:57:00,
2013-03-22 14:03:00,37.5,21.0,29.97,West,260,7.9,15.2,51,0.00,,---,0.04,VWS V14.01,2013-03-22 18:03:00,
2013-03-22 14:08:00,37.3,20.9,29.97,North,350,5.6,5.6,51,0.00,,---,0.04,VWS V14.01,2013-03-22 18:08:00,
2013-03-22 14:13:00,37.3,20.9,29.97,WNW,282,12.6,12.6,51,0.00,,---,0.04,VWS V14.01,2013-03-22 18:13:00,
2013-03-22 14:18:00,36.4,20.0,29.97,North,350,3.6,8.9,51,0.00,,---,0.04,VWS V14.01,2013-03-22 18:18:00,
2013-03-22 14:23:00,36.4,20.0,29.97,SW,215,7.9,7.9,51,0.00,,---,0.04,VWS V14.01,2013-03-22 18:23:00,
2013-03-22 14:28:00,35.5,19.2,29.97,West,260,8.9,8.9,51,0.00,,---,0.04,VWS V14.01,2013-03-22 18:28:00,
2013-03-22 14:33:00,36.3,19.9,29.97,SW,215,9.3,9.6,51,0.00,,---,0.04,VWS V14.01,2013-03-22 18:33:00,
2013-03-22 14:38:00,35.9,19.5,29.97,North,350,5.6,5.6,51,0.00,,---,0.04,VWS V14.01,2013-03-22 18:38:00,
2013-03-22 14:44:00,35.2,18.9,29.97,NW,305,6.3,7.0,51,0.00,,---,0.04,VWS V14.01,2013-03-22 18:44:00,
2013-03-22 14:49:00,35.9,19.5,29.97,West,260,12.6,12.6,51,0.00,,---,0.04,VWS V14.01,2013-03-22 18:49:00,
2013-03-22 14:54:00,35.5,19.7,29.97,WNW,282,8.3,11.9,52,0.00,,---,0.04,VWS V14.01,2013-03-22 18:54:00,
2013-03-22 14:59:00,36.3,20.3,29.97,SW,215,10.9,10.9,52,0.00,,---,0.04,VWS V14.01,2013-03-22 18:59:00,
2013-03-22 15:04:00,35.7,19.4,29.97,West,260,16.2,16.2,51,0.00,,---,0.04,VWS V14.01,2013-03-22 19:04:00,
2013-03-22 15:09:00,35.5,19.2,29.97,West,260,11.6,16.2,51,0.00,,---,0.04,VWS V14.01,2013-03-22 19:09:00,
2013-03-22 15:14:00,35.7,19.8,29.97,West,260,10.9,10.9,52,0.00,,---,0.04,VWS V14.01,2013-03-22 19:14:00,
2013-03-22 15:19:00,35.5,19.2,29.97,West,260,7.3,10.9,51,0.00,,---,0.04,VWS V14.01,2013-03-22 19:19:00,
2013-03-22 15:24:00,35.0,18.7,29.97,NW,305,8.9,8.9,51,0.00,,---,0.04,VWS V14.01,2013-03-22 19:24:00,
2013-03-22 15:29:00,34.8,19.0,29.97,NW,305,15.2,15.2,52,0.00,,---,0.04,VWS V14.01,2013-03-22 19:29:00,
2013-03-22 15:34:00,34.6,18.8,29.97,SW,215,8.6,8.6,52,0.00,,---,0.04,VWS V14.01,2013-03-22 19:34:00,
2013-03-22 15:39:00,34.3,18.5,29.97,SW,215,8.6,8.6,52,0.00,,---,0.04,VWS V14.01,2013-03-22 19:39:00,
2013-03-22 15:45:00,34.3,18.5,29.97,SW,215,6.0,8.6,52,0.00,,---,0.04,VWS V14.01,2013-03-22 19:45:00,
2013-03-22 15:50:00,34.3,18.5,29.97,SW,215,6.0,6.0,52,0.00,,---,0.04,VWS V14.01,2013-03-22 19:50:00,
2013-03-22 15:55:00,34.3,18.5,29.97,SW,215,6.0,6.0,52,0.00,,---,0.04,VWS V14.01,2013-03-22 19:55:00,
2013-03-22 16:00:00,34.3,18.5,29.97,West,260,11.3,11.3,52,0.00,,---,0.04,VWS V14.01,2013-03-22 20:00:00,
2013-03-22 16:05:00,34.3,18.5,29.97,NW,305,4.3,4.3,52,0.00,,---,0.04,VWS V14.01,2013-03-22 20:05:00,
2013-03-22 16:10:00,34.5,18.7,29.97,West,260,6.3,6.3,52,0.00,,---,0.04,VWS V14.01,2013-03-22 20:10:00,
2013-03-22 16:15:00,34.3,18.9,29.97,West,260,6.3,6.3,53,0.00,,---,0.04,VWS V14.01,2013-03-22 20:15:00,
2013-03-22 16:20:00,33.9,18.2,29.97,West,260,6.3,6.3,52,0.00,,---,0.04,VWS V14.01,2013-03-22 20:20:00,
2013-03-22 16:25:00,33.9,18.6,29.97,West,260,6.3,6.3,53,0.00,,---,0.04,VWS V14.01,2013-03-22 20:25:00,
2013-03-22 16:30:00,33.9,18.6,29.97,West,260,6.3,6.3,53,0.00,,---,0.04,VWS V14.01,2013-03-22 20:30:00,
2013-03-22 16:36:00,34.3,18.9,29.97,West,260,10.9,10.9,53,0.00,,---,0.04,VWS V14.01,2013-03-22 20:36:00,
2013-03-22 16:41:00,34.1,18.8,29.97,West,260,4.0,4.0,53,0.00,,---,0.04,VWS V14.01,2013-03-22 20:41:00,
2013-03-22 16:46:00,34.1,18.3,29.97,West,260,5.6,5.6,52,0.00,,---,0.04,VWS V14.01,2013-03-22 20:46:00,
2013-03-22 16:52:00,33.9,18.6,29.97,West,260,5.6,5.6,53,0.00,,---,0.04,VWS V14.01,2013-03-22 20:52:00,
2013-03-22 16:57:00,33.9,18.6,29.97,NE,35,3.0,3.0,53,0.00,,---,0.04,VWS V14.01,2013-03-22 20:57:00,
2013-03-22 17:02:00,33.7,18.4,29.97,NW,305,8.3,8.3,53,0.00,,---,0.04,VWS V14.01,2013-03-22 21:02:00,
2013-03-22 17:08:00,33.6,18.3,29.97,SW,215,4.0,4.0,53,0.00,,---,0.04,VWS V14.01,2013-03-22 21:08:00,
2013-03-22 17:13:00,34.1,18.8,29.97,NW,305,6.3,6.3,53,0.00,,---,0.04,VWS V14.01,2013-03-22 21:13:00,
2013-03-22 17:18:00,34.5,19.1,29.97,NW,305,7.0,7.0,53,0.00,,---,0.04,VWS V14.01,2013-03-22 21:18:00,
2013-03-22 17:23:00,34.5,19.1,29.97,West,260,4.6,4.6,53,0.00,,---,0.04,VWS V14.01,2013-03-22 21:23:00,
2013-03-22 17:28:00,34.6,19.3,29.97,West,260,3.6,3.6,53,0.00,,---,0.04,VWS V14.01,2013-03-22 21:28:00,
2013-03-22 17:33:00,34.5,18.7,29.97,West,260,3.6,3.6,52,0.00,,---,0.04,VWS V14.01,2013-03-22 21:33:00,
2013-03-22 17:38:00,34.1,18.3,29.97,West,260,3.6,3.6,52,0.00,,---,0.04,VWS V14.01,2013-03-22 21:38:00,
2013-03-22 17:43:00,34.1,18.8,29.97,West,260,3.6,3.6,53,0.00,,---,0.04,VWS V14.01,2013-03-22 21:43:00,
2013-03-22 17:48:00,33.9,18.6,29.97,West,260,3.6,3.6,53,0.00,,---,0.04,VWS V14.01,2013-03-22 21:48:00,
2013-03-22 17:54:00,33.7,18.4,29.97,North,350,3.3,4.6,53,0.00,,---,0.04,VWS V14.01,2013-03-22 21:54:00,
2013-03-22 17:59:00,33.9,18.6,29.97,NW,305,3.0,3.0,53,0.00,,---,0.04,VWS V14.01,2013-03-22 21:59:00,
2013-03-22 18:04:00,33.7,18.4,29.97,WSW,238,2.0,2.0,53,0.00,,---,0.04,VWS V14.01,2013-03-22 22:04:00,
2013-03-22 18:09:00,33.9,18.6,29.97,West,260,6.6,6.6,53,0.00,,---,0.04,VWS V14.01,2013-03-22 22:09:00,
2013-03-22 18:14:00,33.7,18.4,29.97,NW,305,7.9,7.9,53,0.00,,---,0.04,VWS V14.01,2013-03-22 22:14:00,
2013-03-22 18:19:00,33.4,18.1,29.97,NW,305,7.9,7.9,53,0.00,,---,0.04,VWS V14.01,2013-03-22 22:19:00,
2013-03-22 18:24:00,33.4,18.1,29.97,NW,305,7.9,7.9,53,0.00,,---,0.04,VWS V14.01,2013-03-22 22:24:00,
2013-03-22 18:29:00,33.6,18.3,29.97,West,260,9.3,9.3,53,0.00,,---,0.04,VWS V14.01,2013-03-22 22:29:00,
2013-03-22 18:35:00,33.4,18.1,29.97,West,260,9.3,9.3,53,0.00,,---,0.04,VWS V14.01,2013-03-22 22:35:00,
2013-03-22 18:40:00,33.0,18.2,29.97,West,260,9.3,9.3,54,0.00,,---,0.04,VWS V14.01,2013-03-22 22:40:00,
2013-03-22 18:45:00,33.0,18.2,29.97,West,260,9.3,9.3,54,0.00,,---,0.04,VWS V14.01,2013-03-22 22:45:00,
2013-03-22 18:50:00,32.7,17.9,29.97,West,260,9.3,9.3,54,0.00,,---,0.04,VWS V14.01,2013-03-22 22:50:00,
2013-03-22 18:55:00,32.7,17.9,29.97,NNW,328,2.3,7.0,54,0.00,,---,0.04,VWS V14.01,2013-03-22 22:55:00,
2013-03-22 19:00:00,32.7,17.9,29.97,West,260,4.6,4.6,54,0.00,,---,0.04,VWS V14.01,2013-03-22 23:00:00,
2013-03-22 19:06:00,32.7,17.9,29.97,West,260,4.6,4.6,54,0.00,,---,0.04,VWS V14.01,2013-03-22 23:06:00,
2013-03-22 19:11:00,32.5,17.7,29.97,North,350,3.6,3.6,54,0.00,,---,0.04,VWS V14.01,2013-03-22 23:11:00,
2013-03-22 19:16:00,32.3,17.5,29.97,NNW,328,3.6,3.6,54,0.00,,---,0.04,VWS V14.01,2013-03-22 23:16:00,
2013-03-22 19:22:00,32.1,17.8,29.97,NNW,328,3.6,3.6,55,0.00,,---,0.04,VWS V14.01,2013-03-22 23:22:00,
2013-03-22 19:27:00,31.9,17.6,29.97,West,260,2.0,2.0,55,0.00,,---,0.04,VWS V14.01,2013-03-22 23:27:00,
2013-03-22 19:32:00,31.8,17.5,29.97,NW,305,3.0,3.0,55,0.00,,---,0.04,VWS V14.01,2013-03-22 23:32:00,
2013-03-22 19:37:00,31.6,17.3,29.97,WNW,282,0.0,5.0,55,0.00,,---,0.04,VWS V14.01,2013-03-22 23:37:00,
2013-03-22 19:42:00,31.4,17.1,30.00,WNW,282,2.0,2.0,55,0.00,,---,0.04,VWS V14.01,2013-03-22 23:42:00,
2013-03-22 19:47:00,31.2,17.0,30.00,NW,305,4.6,4.6,55,0.00,,---,0.04,VWS V14.01,2013-03-22 23:47:00,
2013-03-22 19:53:00,30.9,16.6,30.00,NW,305,0.0,6.3,55,0.00,,---,0.04,VWS V14.01,2013-03-22 23:53:00,
2013-03-22 19:58:00,30.7,16.4,30.00,West,260,4.6,4.6,55,0.00,,---,0.04,VWS V14.01,2013-03-22 23:58:00,
2013-03-22 20:03:00,30.5,16.3,30.00,West,260,5.6,5.6,55,0.00,,---,0.04,VWS V14.01,2013-03-23 00:03:00,
2013-03-22 20:08:00,30.1,16.4,30.00,WNW,282,5.0,5.0,56,0.00,,---,0.04,VWS V14.01,2013-03-23 00:08:00,
2013-03-22 20:13:00,30.0,16.2,30.00,NW,305,1.3,6.0,56,0.00,,---,0.04,VWS V14.01,2013-03-23 00:13:00,
2013-03-22 20:18:00,29.8,16.0,30.00,NW,305,3.0,4.6,56,0.00,,---,0.04,VWS V14.01,2013-03-23 00:18:00,
2013-03-22 20:23:00,29.6,15.8,30.00,NW,305,0.0,4.3,56,0.00,,---,0.04,VWS V14.01,2013-03-23 00:23:00,
2013-03-22 20:29:00,29.4,16.1,30.00,NW,305,2.3,2.3,57,0.00,,---,0.04,VWS V14.01,2013-03-23 00:29:00,
2013-03-22 20:34:00,29.2,15.9,30.00,West,260,1.7,5.6,57,0.00,,---,0.04,VWS V14.01,2013-03-23 00:34:00,
2013-03-22 20:39:00,29.2,15.9,30.00,NW,305,2.0,2.0,57,0.00,,---,0.04,VWS V14.01,2013-03-23 00:39:00,
2013-03-22 20:44:00,29.1,15.7,30.00,NW,305,0.0,4.0,57,0.00,,---,0.04,VWS V14.01,2013-03-23 00:44:00,
2013-03-22 20:49:00,28.9,16.0,30.00,West,260,0.0,0.0,58,0.00,,---,0.04,VWS V14.01,2013-03-23 00:49:00,
2013-03-22 20:54:00,28.9,16.0,30.00,West,260,5.6,5.6,58,0.00,,---,0.04,VWS V14.01,2013-03-23 00:54:00,
2013-03-22 20:59:00,28.9,16.0,30.00,North,350,0.0,5.0,58,0.00,,---,0.04,VWS V14.01,2013-03-23 00:59:00,
2013-03-22 21:05:00,28.7,15.8,30.00,NW,305,2.3,5.0,58,0.00,,---,0.04,VWS V14.01,2013-03-23 01:05:00,
2013-03-22 21:10:00,28.5,15.6,30.00,NW,305,3.0,3.0,58,0.00,,---,0.04,VWS V14.01,2013-03-23 01:10:00,
2013-03-22 21:15:00,28.5,15.6,30.00,NW,305,0.0,0.0,58,0.00,,---,0.04,VWS V14.01,2013-03-23 01:15:00,
2013-03-22 21:20:00,28.3,15.5,30.00,NW,305,5.3,7.3,58,0.00,,---,0.04,VWS V14.01,2013-03-23 01:20:00,
2013-03-22 21:25:00,28.0,15.5,30.00,NW,305,0.0,0.0,59,0.00,,---,0.04,VWS V14.01,2013-03-23 01:25:00,
2013-03-22 21:30:00,27.8,15.4,30.00,NW,305,0.0,0.0,59,0.00,,---,0.04,VWS V14.01,2013-03-23 01:30:00,
2013-03-22 21:35:00,27.8,15.4,30.00,NW,305,0.0,1.7,59,0.00,,---,0.04,VWS V14.01,2013-03-23 01:35:00,
2013-03-22 21:41:00,27.6,15.2,30.00,North,350,0.0,0.0,59,0.00,,---,0.04,VWS V14.01,2013-03-23 01:41:00,
2013-03-22 21:46:00,27.4,15.4,30.00,North,350,2.3,2.3,60,0.00,,---,0.04,VWS V14.01,2013-03-23 01:46:00,
2013-03-22 21:52:00,27.3,15.2,30.00,North,350,0.0,0.0,60,0.00,,---,0.04,VWS V14.01,2013-03-23 01:52:00,
2013-03-22 21:57:00,27.1,15.1,30.00,NW,305,0.0,0.0,60,0.00,,---,0.04,VWS V14.01,2013-03-23 01:57:00,
2013-03-22 22:02:00,27.1,15.1,30.00,WNW,282,0.0,0.0,60,0.00,,---,0.04,VWS V14.01,2013-03-23 02:02:00,
2013-03-22 22:07:00,27.1,15.1,30.00,NW,305,2.0,2.0,60,0.00,,---,0.04,VWS V14.01,2013-03-23 02:07:00,
2013-03-22 22:12:00,26.9,14.9,30.00,NW,305,1.7,1.7,60,0.00,,---,0.04,VWS V14.01,2013-03-23 02:12:00,
2013-03-22 22:17:00,26.7,14.7,30.00,NW,305,0.0,0.0,60,0.00,,---,0.04,VWS V14.01,2013-03-23 02:17:00,
2013-03-22 22:22:00,26.7,14.7,30.00,North,350,0.0,0.0,60,0.00,,---,0.04,VWS V14.01,2013-03-23 02:22:00,
2013-03-22 22:27:00,26.7,14.7,30.00,NW,305,4.0,4.0,60,0.00,,---,0.04,VWS V14.01,2013-03-23 02:27:00,
2013-03-22 22:33:00,26.7,15.1,30.00,North,350,0.0,0.0,61,0.00,,---,0.04,VWS V14.01,2013-03-23 02:33:00,
2013-03-22 22:38:00,26.7,15.1,30.00,North,350,0.0,0.0,61,0.00,,---,0.04,VWS V14.01,2013-03-23 02:38:00,
2013-03-22 22:43:00,26.5,14.9,30.00,NW,305,0.0,0.0,61,0.00,,---,0.04,VWS V14.01,2013-03-23 02:43:00,
2013-03-22 22:48:00,26.5,14.9,30.00,North,350,0.0,0.0,61,0.00,,---,0.04,VWS V14.01,2013-03-23 02:48:00,
2013-03-22 22:53:00,26.2,14.2,30.00,NW,305,1.3,1.3,60,0.00,,---,0.04,VWS V14.01,2013-03-23 02:53:00,
2013-03-22 22:58:00,26.2,14.2,30.00,NW,305,1.7,1.7,60,0.00,,---,0.04,VWS V14.01,2013-03-23 02:58:00,
2013-03-22 23:03:00,25.8,14.2,30.00,NW,305,0.0,2.0,61,0.00,,---,0.04,VWS V14.01,2013-03-23 03:03:00,
2013-03-22 23:09:00,25.6,14.1,30.00,West,260,0.0,0.0,61,0.00,,---,0.04,VWS V14.01,2013-03-23 03:09:00,
2013-03-22 23:14:00,25.5,13.9,30.00,West,260,0.0,0.0,61,0.00,,---,0.04,VWS V14.01,2013-03-23 03:14:00,
2013-03-22 23:19:00,25.5,13.9,30.00,WNW,282,0.0,0.0,61,0.00,,---,0.04,VWS V14.01,2013-03-23 03:19:00,
2013-03-22 23:24:00,25.3,13.7,30.00,WNW,282,0.0,0.0,61,0.00,,---,0.04,VWS V14.01,2013-03-23 03:24:00,
2013-03-22 23:29:00,25.3,13.7,30.03,WNW,282,0.0,0.0,61,0.00,,---,0.04,VWS V14.01,2013-03-23 03:29:00,
2013-03-22 23:34:00,25.1,13.6,30.03,NW,305,0.0,3.0,61,0.00,,---,0.04,VWS V14.01,2013-03-23 03:34:00,
2013-03-22 23:39:00,24.9,13.8,30.03,West,260,2.0,2.3,62,0.00,,---,0.04,VWS V14.01,2013-03-23 03:39:00,
2013-03-22 23:45:00,24.9,13.8,30.03,NW,305,0.0,3.0,62,0.00,,---,0.04,VWS V14.01,2013-03-23 03:45:00,
2013-03-22 23:50:00,24.7,13.6,30.03,NW,305,0.0,4.3,62,0.00,,---,0.04,VWS V14.01,2013-03-23 03:50:00,
2013-03-22 23:55:00,24.7,13.9,30.03,NW,305,0.0,1.7,63,0.00,,---,0.04,VWS V14.01,2013-03-23 03:55:00,